Norfolk, NE

5:16 AM CDT on July 27, 2017 (GMT -0500)
Stefan Memorial

Weather History for KOFK - August, 2013

Change the Weather History Date:

Wednesday, August 7, 2013

  Actual Average Record
Temperature  
Mean Temperature 71 °F 74 °F  
Max Temperature 81 °F 85 °F 100 °F (1980)
Min Temperature 61 °F 63 °F 46 °F (1989)
Degree Days  
Heating Degree Days 0 0  
Month to date heating degree days 0 0  
Since 1 June heating degree days 55 34  
Since 1 July heating degree days 13 4  
Cooling Degree Days 6 9  
Month to date cooling degree days 47 68  
Year to date cooling degree days 585 629  
Since 1 June cooling degree days 521 568  
Growing Degree Days 21 (Base 50)    
Moisture  
Dew Point 62 °F    
Average Humidity 72    
Maximum Humidity 93    
Minimum Humidity 51    
Precipitation  
Precipitation 0.00 in 0.11 in 1.90 in (1912)
Month to date precipitation 1.72 0.76  
Year to date precipitation 16.55 18.04  
Snow  
Snow 0.00 in 0.00 in - ()
Month to date snowfall 0.0 0.0  
Since 1 July snowfall 0.0 0.0  
Snow Depth 0.00 in    
Sea Level Pressure  
Sea Level Pressure 29.96 in    
Wind  
Wind Speed 4 mph (East)    
Max Wind Speed 14 mph    
Max Gust Speed 17 mph    
Visibility 10 miles    
Events      
T = Trace of Precipitation, MM = Missing Value Source: NWS Daily Summary

Daily Weather History Graph

Daily Weather History Graph

Search for Another Location

Airport or City:

Trip Planner

Search our weather history database for the weather conditions in past years. The results will help you decide how hot, cold, wet, or windy it might be!

Date:

Astronomy

Aug. 07, 2013 Rise Set
Actual Time 6:29 AM CDT 8:40 PM CDT
Civil Twilight 5:58 AM CDT 9:11 PM CDT
Nautical Twilight 5:20 AM CDT 9:49 PM CDT
Astronomical Twilight 4:38 AM CDT 10:30 PM CDT
Moon 7:21 AM CDT (8/7) 8:46 PM CDT (8/7)
Length of Visible Light 15h 12m
Length of Day
14h 11m
New Moon, 1% of the Moon is Illuminated
Aug 7
New Moon
Aug 14
First Quarter
Aug 20
Full
Aug 28
Last Quarter
Sep 5
New

Hourly Weather History & Observations

Time (CDT) Temp. Heat Index Dew Point Humidity Pressure Visibility Wind Dir Wind Speed Gust Speed Precip Events Conditions
12:56 AM 66.9 °F - 64.9 °F 93% 29.87 in 10.0 mi Calm Calm - N/A   Clear
1:56 AM 66.9 °F - 64.0 °F 90% 29.89 in 10.0 mi West 4.6 mph - N/A   Clear
2:56 AM 66.0 °F - 63.0 °F 90% 29.88 in 10.0 mi West 4.6 mph - N/A   Clear
3:56 AM 66.9 °F - 60.1 °F 79% 29.88 in 10.0 mi NNW 10.4 mph - N/A   Clear
4:56 AM 63.0 °F - 60.1 °F 90% 29.89 in 10.0 mi NNW 5.8 mph - N/A   Clear
5:56 AM 63.0 °F - 59.0 °F 87% 29.90 in 10.0 mi WNW 3.5 mph - N/A   Clear
6:56 AM 61.0 °F - 57.9 °F 90% 29.94 in 10.0 mi Calm Calm - N/A   Clear
7:56 AM 66.0 °F - 60.1 °F 81% 29.96 in 10.0 mi Calm Calm - N/A   Clear
8:56 AM 69.1 °F - 57.9 °F 68% 29.98 in 10.0 mi NNE 4.6 mph - N/A   Clear
9:56 AM 71.1 °F - 59.0 °F 66% 29.99 in 10.0 mi Calm Calm - N/A   Clear
10:56 AM 73.9 °F - 62.1 °F 66% 30.00 in 10.0 mi Variable 3.5 mph - N/A   Clear
11:56 AM 77.0 °F - 62.1 °F 60% 30.00 in 10.0 mi Calm Calm - N/A   Clear
12:56 PM 78.1 °F - 61.0 °F 56% 30.00 in 10.0 mi NE 5.8 mph - N/A   Clear
1:56 PM 79.0 °F - 62.1 °F 56% 29.99 in 10.0 mi SE 5.8 mph - N/A   Partly Cloudy
2:56 PM 80.1 °F 81.2 °F 62.1 °F 54% 29.99 in 10.0 mi Variable 3.5 mph - N/A   Partly Cloudy
3:56 PM 80.1 °F 81.1 °F 61.0 °F 52% 29.98 in 10.0 mi ENE 4.6 mph - N/A   Clear
4:56 PM 80.1 °F 81.1 °F 61.0 °F 52% 29.97 in 10.0 mi East 5.8 mph - N/A   Clear
5:56 PM 79.0 °F - 61.0 °F 54% 29.98 in 10.0 mi ESE 4.6 mph - N/A   Clear
6:56 PM 77.0 °F - 64.0 °F 64% 29.97 in 10.0 mi SSE 5.8 mph - N/A   Clear
7:56 PM 75.0 °F - 64.9 °F 71% 29.97 in 10.0 mi SE 5.8 mph - N/A   Clear
8:56 PM 72.0 °F - 66.0 °F 81% 29.98 in 10.0 mi ESE 3.5 mph - N/A   Clear
9:56 PM 71.1 °F - 64.9 °F 81% 29.98 in 10.0 mi SE 4.6 mph - N/A   Partly Cloudy
10:56 PM 70.0 °F - 64.9 °F 84% 29.99 in 10.0 mi ESE 4.6 mph - N/A   Mostly Cloudy
11:56 PM 66.9 °F - 64.0 °F 90% 29.99 in 10.0 mi ESE 5.8 mph - N/A   Clear